STARLINK-35809, 66373

Orbit data source: Space-Track

STARLINK-35809, 66373 is a payload satellite owned by SpaceX/Seattle (US) in LEO that was launched on Thu, 06 Nov 2025 UTC via an FALCON 9 launch vehicle from the Air Force Western Test Range (AFWTR). Payload-class satellites include a variety of spacecraft equipped with specific instruments for various scientific and technological missions. These include communications satellites like Starlink; space stations such as the ISS; scientific satellites like the Hubble; Earth observation satellites from companies like Planet Labs, Umbra, and HawkEye 360; GPS; miniature CubeSats for education and research; and military/defense satellites.

Loading next visibility...
Identifier
66373, 2025-254AB
Orbit
LEO
Country
Flag of USUS
Related business
Manufacturer
SpaceX/Seattle
Mission
Operational Commercial Communications
Bus & Motor
STARLINK V2MO, Unknown motor
Mass
575 kg wet, ~530 kg dry
Launch date (UTC)
2025-11-06 (7 months ago)
Launch vehicle
FALCON 9
Launch site
Air Force Western Test Range (AFWTR)
Object type
Payload
Rocket body
Debris
Shape & HBR
Box + 2 Pan, 17.7 m
Radar Cross Section
36.964 m², Large (>1 m²)

Expand to show TLE details & history
Last TLE update: 1 day ago

TLE from 1 day ago
0 STARLINK-35809
1 66373U 25254AB  26170.54642496  .00012981  00000-0  44964-3 0  9990
2 66373  53.1576 116.9337 0001496  95.4511 264.6661 15.30200811 34604
Epoch: 2026-06-19T13:06Z
TLE epoch observation values (Epoch: 2026-06-19T13:06:51.116Z)
Latitude
0.00002°
Longitude
12.44689°
Altitude
476.208 km
Speed
7.629 km/s
True Right ascension
07h 47m 44s
True Declination
0° 00' 00"
Sunlit
Object was in daylight at epoch
Visualization orbit readout
Latitude
Unknown
Longitude
Unknown
Altitude
Unknown
Speed
Unknown
Apparent Right ascension
Unknown
Apparent Declination
Unknown
Sunlit
N/A
Visualization observer readout
Local Sidereal Time
07:18:17
Azimuth
Unknown
Elevation
Unknown
Doppler factor
Unknown
Orbital elements
Apogee altitude
476.495 km
Perigee altitude
474.444 km
Semi-major axis
6,853.606 km
Eccentricity
0.00015
Inclination
53.1576°
RAAN
116.9337°
Arg. of periapsis
95.4511°
True anomaly
264.64903°
Mean anomaly
264.6661°
Eccentric anomaly
264.65757°
Mean motion
3.82529 °/min
Orbital period
94.11 mins
BSTAR
0.00044964
Loading maneuver chart data...
Computing Atmospheric mass density...
Loading historical data...
Loading historical data...
Loading historical data...
Loading historical data...
Loading historical data...
Loading historical data...
Loading historical data...

Documentation

Showing up to 5 results
|